Weather in Geelong

Australia     38°08′39″S   144°20′08″E
temp.,
°C
wind,
m/s
gust,
m/s
humid.,
%
clouds,
%
prec.,
mm/h
press.,
hPa
HPBL,
m
28 february, sun
sun2823:00+13se118584 0.0 101324
02:00+12nne01899 0.0 101323
05:00+11n12905 0.0 101223
08:00+13nne11830 0.0 101357
11:00+23ne11410 0.0 1013544
14:00+26sse233335 0.0 10111175
17:00+20sse465868 0.0 1008318
20:00+17s497233 0.0 1009405
1 march, mon
mon123:00+17ssw357835 0.0 1011342
02:00+14wsw228242 0.0 101067
05:00+13w378623 0.0 1010185
08:00+12w36910 0.0 1012198
11:00+20sw35574 0.0 10141225
14:00+22ssw464389 0.1 10131709
17:00+17s7106492 0.1 10141006
20:00+14ssw596664 0.1 10171054
2 march, tue
tue223:00+11ssw297239 0.1 1019468
02:00+12s366296 0.0 10191027
05:00+12s465798 0.0 10181264
08:00+10s276616 0.0 1019656
11:00+14s465350 0.0 10201337
14:00+17s554374 0.0 10201408
17:00+16s574937 0.0 10181113
20:00+12s38650 0.0 1020775
3 march, wed
wed323:00+10s24740 0.0 1021115
02:00+12s256466 0.0 1020909
05:00+12ssw256481 0.0 1020750
08:00+12s3563100 0.0 1021922
11:00+15sse3552100 0.0 10221280
14:00+16sse455298 0.1 10211220
17:00+16s575177 0.1 10191073
20:00+13s38660 0.0 1021586
4 march, thu
thu423:00+11ssw12770 0.0 102247
02:00+11w127744 0.0 102177
05:00+12wsw247965 0.0 1020197
08:00+12sw238075 0.0 1021147
11:00+16s345975 0.0 10211035
14:00+20sse434932 0.0 10191078
17:00+18sse575917 0.0 1017677
20:00+14s49760 0.0 1019591